map of ESU home
Great Circle Mapper logo
ESU - Airport
Location
City:  Essaouira, Morocco
Name:Mogador
ICAO / IATA:GMMI / ESU

Details
Type:Airport (Aerodrome, Airfield)
Use:International (customs port of entry)
Latitude:3123'51"N (31.397500)
Longitude:940'54"W (-9.681666)
Datum:WGS 1984
Elevation:384 ft (117 m)
Variation:2.79W (WMM2015 magnetic declination)
0.11 annual change
Runways:1
Longest:6890 × 148 ft (2100 × 45 m), paved

Time
Time Zone:UTC+0 (DST+1)
Local Time:

Weather
METAR:GMMI 281900Z AUTO 02012KT 9999NDV NCD 28/19 Q1009 NOSIG
TAF:GMMI 281700Z 2818/2924 35010KT 6000 SCT030
BECMG 2819/2822 VRB02KT PROB40 2900/2907 2000 BR BKN010
BECMG 2908/2911 32008KT SCT010 PROB30
TEMPO 2820/2903 -RA SCT020TCU

Related Locations
Nearby:
Farthest:NLK: 12220 mi / 19667 km
Norfolk Island, NF

Find:

   beyond  
but within

Other Information
Maps:
NOTAMs:
Links:
Sources:

  
flag of Morocco   

Sectional Chart

Flight Planning
at skyvector.com

Satellite Image

Google Maps Satellite view

 

Copyright © 2004-2015 Karl L. Swartz. All rights reserved.
The Great Circle Mapper name and logo are trademarks of the Great Circle Mapper.
All other trademarks mentioned herein belong to their respective owners.
Please see credits for attibutions and further copyright information.

  Follow gcmap on Facebook Follow gcmap on Twitter Follow gcmap on Google+

hCard Microformat

Geo Microformat